ONEWEB-0050, 45453

Orbit data source: Space-Track

ONEWEB-0050, 45453 is a payload satellite owned by One Web (UK) in LEO that was launched on Sat, 21 Mar 2020 UTC via a SOYUZ-2-1B launch vehicle from the Tyuratam Missile And Space Complex (TTMTR). Payload-class satellites include a variety of spacecraft equipped with specific instruments for various scientific and technological missions. These include communications satellites like Starlink; space stations such as the ISS; scientific satellites like the Hubble; Earth observation satellites from companies like Planet Labs, Umbra, and HawkEye 360; GPS; miniature CubeSats for education and research; and military/defense satellites.

Loading next visibility...
Identifier
45453, 2020-020AF
Orbit
LEO
Last TLE update
19 hours ago
Origin
Manufacturer
One Web
Mission
Partially operational Commercial Communications
Bus & Motor
ARROW, Unknown motor
Mass
148 kg wet, ~140 kg dry
Launch date (UTC)
2020-03-21 (5 years ago)
Launch vehicle
SOYUZ-2-1B
Launch site
Tyuratam Missile And Space Complex (TTMTR)
Object type
Payload
Rocket body
Debris
Shape & HBR
Trap Box + 2 Pan, 5 m
Radar Cross Section
2.957 m², Large (>1 m²)

Expand to show TLE details & history

TLE from 19 hours ago
0 ONEWEB-0050
1 45453U 20020AF  25109.10048666  .00003092  00000-0  31567-3 0  9992
2 45453  87.9964 310.4082 0004827  74.5657 285.6105 14.90333225277239
Epoch: 2025-04-19T02:24Z
Definitive object data (Epoch: 2025-04-19T02:24:42.047Z)
Latitude
0.00004°
Longitude
66.78448°
Altitude
599.138 km
Speed
7.561 km/s
True Right ascension
20h 41m 37s
True Declination
0° 00' 00"
Sunlit
Object was in daylight at TLE epoch
Visualization TLE readout
Latitude
-38.28717°
Longitude
-111.83979°
Altitude
614.418 km
Speed
7.549 km/s
Apparent Right ascension
12h 05m 05s
Apparent Declination
-53° 49' 52"
Sunlit
Object is in daylight
Visualization observer readout
Local Sidereal Time
03:59:09
Azimuth
129.939° SE
Elevation
-48.971°
Doppler factor
1
Orbital elements
Apogee altitude
597.121 km
Perigee altitude
590.39 km
Semi-major axis
6,971.893 km
Eccentricity
0.0004827
Inclination
87.9964°
RAAN
310.4082°
Arg. of periapsis
74.5657°
True anomaly
285.55722°
Mean anomaly
285.6105°
Eccentric anomaly
285.58386°
Mean motion
3.72835 °/min
BSTAR
0.00031567
Orbital period
96.56 mins
Loading maneuver chart data...
Loading SW <> Apogee altitude chart data...
Loading historical data...
Loading historical data...
Loading historical data...
Loading historical data...
Loading historical data...
Loading historical data...
Loading historical data...

ONEWEB-0050 Visibility forecast

Observer location: undefined°, undefined°

Span
Click to sort rows by Start time (UTC) header in descending order
Start Az.
Max El. time (UTC)
Max El. Az.
Max El.
End time (UTC)
End Az.
8 mins2025-04-20 01:31:46.272Z2.289° NNE2025-04-20 01:35:46.272Z65.994° ENE44.374°2025-04-20 01:39:46.272Z176.449° S
6 mins2025-04-20 13:59:46.272Z192.389° SSW2025-04-20 14:02:46.272Z295.419° NW42.134°2025-04-20 14:05:46.272Z352.314° N
|